Time,TemperatureF,DewpointF,PressureIn,WindDirection,WindDirectionDegrees,WindSpeedMPH,WindSpeedGustMPH,Humidity,HourlyPrecipIn,Conditions,Clouds,dailyrainin,SolarRadiationWatts/m^2,SoftwareType,DateUTC
2013-04-02 00:22:00,45.0,25.0,-100.00,NNW,345,2.0,4.0,45,0.00,,,0.00,0.000000,,2013-04-02 06:22:00,
2013-04-02 00:32:00,45.0,25.0,-100.00,NNW,345,2.0,4.0,45,0.00,,,0.00,0.000000,,2013-04-02 06:32:00,
2013-04-02 00:42:00,45.0,25.0,-100.00,NNW,345,2.0,4.0,45,0.00,,,0.00,0.000000,,2013-04-02 06:42:00,
2013-04-02 00:52:00,45.0,25.0,-100.00,NNW,345,2.0,4.0,45,0.00,,,0.00,0.000000,,2013-04-02 06:52:00,
2013-04-02 01:01:00,45.0,25.0,-100.00,NNW,345,2.0,4.0,45,0.00,,,0.00,0.000000,,2013-04-02 07:01:00,
2013-04-02 01:32:00,45.0,27.0,-100.00,WNW,296,3.0,4.0,48,0.00,,,0.00,0.000000,,2013-04-02 07:32:00,
2013-04-02 01:43:00,45.0,27.0,-100.00,WNW,296,3.0,4.0,48,0.00,,,0.00,0.000000,,2013-04-02 07:43:00,
2013-04-02 01:52:00,45.0,27.0,-100.00,WNW,296,3.0,4.0,48,0.00,,,0.00,0.000000,,2013-04-02 07:52:00,
2013-04-02 02:32:00,42.0,25.0,-100.00,NNW,331,1.0,4.0,51,0.00,,,0.00,0.000000,,2013-04-02 08:32:00,
2013-04-02 02:42:00,42.0,25.0,-100.00,NNW,331,1.0,4.0,51,0.00,,,0.00,0.000000,,2013-04-02 08:42:00,
2013-04-02 02:52:00,42.0,25.0,-100.00,NNW,331,1.0,4.0,51,0.00,,,0.00,0.000000,,2013-04-02 08:52:00,
2013-04-02 03:02:00,42.0,27.0,-100.00,NW,322,2.0,2.0,56,0.00,,,0.00,0.000000,,2013-04-02 09:02:00,
2013-04-02 03:33:00,42.0,27.0,-100.00,NW,322,2.0,2.0,56,0.00,,,0.00,0.000000,,2013-04-02 09:33:00,
2013-04-02 03:43:00,42.0,27.0,-100.00,NW,322,2.0,2.0,56,0.00,,,0.00,0.000000,,2013-04-02 09:43:00,
2013-04-02 03:52:00,42.0,27.0,-100.00,NW,322,2.0,2.0,56,0.00,,,0.00,0.000000,,2013-04-02 09:52:00,
2013-04-02 04:24:00,41.0,27.0,-100.00,NNW,346,2.0,3.0,57,-99.99,,,0.00,0.000000,,2013-04-02 10:24:00,
2013-04-02 04:33:00,41.0,27.0,-100.00,NNW,346,2.0,3.0,57,-99.99,,,0.00,0.000000,,2013-04-02 10:33:00,
2013-04-02 04:42:00,41.0,27.0,-100.00,NNW,346,2.0,3.0,57,-99.99,,,0.00,0.000000,,2013-04-02 10:42:00,
2013-04-02 04:52:00,41.0,27.0,-100.00,NNW,346,2.0,3.0,57,-99.99,,,0.00,0.000000,,2013-04-02 10:52:00,
2013-04-02 05:33:00,42.0,29.0,-100.00,NNW,327,1.0,2.0,59,-99.99,,,-99.99,0.000000,,2013-04-02 11:33:00,
2013-04-02 05:43:00,42.0,29.0,-100.00,NNW,327,1.0,2.0,59,-99.99,,,-99.99,0.000000,,2013-04-02 11:43:00,
2013-04-02 05:52:00,42.0,29.0,-100.00,NNW,327,1.0,2.0,59,-99.99,,,-99.99,0.000000,,2013-04-02 11:52:00,
2013-04-02 06:32:00,40.0,28.0,-100.00,NNW,330,2.0,2.0,62,-99.99,,,0.00,0.000000,,2013-04-02 12:32:00,
2013-04-02 06:42:00,40.0,28.0,-100.00,NNW,330,2.0,2.0,62,-99.99,,,0.00,0.000000,,2013-04-02 12:42:00,
2013-04-02 06:52:00,40.0,28.0,-100.00,NNW,330,2.0,2.0,62,-99.99,,,0.00,0.000000,,2013-04-02 12:52:00,
2013-04-02 07:02:00,40.0,30.0,-100.00,NW,309,1.0,3.0,66,0.00,,,0.00,0.000000,,2013-04-02 13:02:00,
2013-04-02 07:33:00,40.0,30.0,-100.00,NW,309,1.0,3.0,66,0.00,,,0.00,0.000000,,2013-04-02 13:33:00,
2013-04-02 07:42:00,40.0,30.0,-100.00,NW,309,1.0,3.0,66,0.00,,,0.00,0.000000,,2013-04-02 13:42:00,
2013-04-02 07:52:00,40.0,30.0,-100.00,NW,309,1.0,3.0,66,0.00,,,0.00,0.000000,,2013-04-02 13:52:00,
2013-04-02 08:33:00,44.0,32.0,-100.00,NW,314,1.0,3.0,63,0.00,,,0.00,28.000000,,2013-04-02 14:33:00,
2013-04-02 09:33:00,47.0,33.0,-100.00,SSE,153,2.0,4.0,58,-99.99,,,0.00,93.000000,,2013-04-02 15:33:00,
2013-04-02 10:39:00,50.0,35.0,-100.00,SSE,152,3.0,5.0,56,-99.99,,,-99.99,239.000000,,2013-04-02 16:39:00,
2013-04-02 11:35:00,54.0,35.0,-100.00,SSE,151,4.0,6.0,49,0.00,,,0.00,684.000000,,2013-04-02 17:35:00,
2013-04-02 11:43:00,54.0,35.0,-100.00,SSE,151,4.0,6.0,49,0.00,,,0.00,684.000000,,2013-04-02 17:43:00,
2013-04-02 11:55:00,54.0,35.0,-100.00,SSE,151,4.0,6.0,49,0.00,,,0.00,684.000000,,2013-04-02 17:55:00,
2013-04-02 12:02:00,54.0,36.0,-100.00,West,262,3.0,7.0,51,0.00,,,0.00,648.000000,,2013-04-02 18:02:00,
2013-04-02 12:35:00,54.0,36.0,-100.00,West,262,3.0,7.0,51,0.00,,,0.00,648.000000,,2013-04-02 18:35:00,
2013-04-02 12:43:00,54.0,36.0,-100.00,West,262,3.0,7.0,51,0.00,,,0.00,648.000000,,2013-04-02 18:43:00,
2013-04-02 12:55:00,54.0,36.0,-100.00,West,262,3.0,7.0,51,0.00,,,0.00,648.000000,,2013-04-02 18:55:00,
2013-04-02 13:02:00,58.0,33.0,-100.00,SW,231,5.0,10.0,38,0.00,,,0.00,619.000000,,2013-04-02 19:02:00,
2013-04-02 13:34:00,58.0,33.0,-100.00,SW,231,5.0,10.0,38,0.00,,,0.00,619.000000,,2013-04-02 19:34:00,
2013-04-02 14:34:00,60.0,34.0,-100.00,WSW,238,5.0,11.0,37,0.00,,,0.00,750.000000,,2013-04-02 20:34:00,
2013-04-02 16:02:00,59.0,31.0,-100.00,SW,234,4.0,10.0,35,-99.99,,,-99.99,828.000000,,2013-04-02 22:02:00,
2013-04-02 16:33:00,59.0,31.0,-100.00,SW,234,4.0,10.0,35,-99.99,,,-99.99,828.000000,,2013-04-02 22:33:00,
2013-04-02 16:44:00,59.0,31.0,-100.00,SW,234,4.0,10.0,35,-99.99,,,-99.99,828.000000,,2013-04-02 22:44:00,
2013-04-02 16:53:00,59.0,31.0,-100.00,SW,234,4.0,10.0,35,-99.99,,,-99.99,828.000000,,2013-04-02 22:53:00,
2013-04-02 17:02:00,52.0,29.0,-100.00,SW,229,4.0,12.0,41,0.00,,,0.00,442.000000,,2013-04-02 23:02:00,
2013-04-02 17:36:00,52.0,29.0,-100.00,SW,229,4.0,12.0,41,0.00,,,0.00,442.000000,,2013-04-02 23:36:00,
2013-04-02 17:43:00,52.0,29.0,-100.00,SW,229,4.0,12.0,41,0.00,,,0.00,442.000000,,2013-04-02 23:43:00,
2013-04-02 17:53:00,52.0,29.0,-100.00,SW,229,4.0,12.0,41,0.00,,,0.00,442.000000,,2013-04-02 23:53:00,
2013-04-02 18:02:00,53.0,30.0,-100.00,North,3,3.0,11.0,41,0.00,,,0.00,122.000000,,2013-04-03 00:02:00,
2013-04-02 18:34:00,53.0,30.0,-100.00,North,3,3.0,11.0,41,0.00,,,0.00,122.000000,,2013-04-03 00:34:00,
2013-04-02 18:47:00,53.0,30.0,-100.00,North,3,3.0,11.0,41,0.00,,,0.00,122.000000,,2013-04-03 00:47:00,
2013-04-02 18:55:00,53.0,30.0,-100.00,North,3,3.0,11.0,41,0.00,,,0.00,122.000000,,2013-04-03 00:55:00,
2013-04-02 19:02:00,49.0,31.0,-100.00,NNW,348,2.0,10.0,49,0.00,,,0.00,65.000000,,2013-04-03 01:02:00,
2013-04-02 19:34:00,49.0,31.0,-100.00,NNW,348,2.0,10.0,49,0.00,,,0.00,65.000000,,2013-04-03 01:34:00,
2013-04-02 19:42:00,49.0,31.0,-100.00,NNW,348,2.0,10.0,49,0.00,,,0.00,65.000000,,2013-04-03 01:42:00,
2013-04-02 19:53:00,49.0,31.0,-100.00,NNW,348,2.0,10.0,49,0.00,,,0.00,65.000000,,2013-04-03 01:53:00,
2013-04-02 20:02:00,46.0,29.0,-100.00,NW,323,2.0,5.0,51,0.00,,,0.00,26.000000,,2013-04-03 02:02:00,
2013-04-02 20:34:00,46.0,29.0,-100.00,NW,323,2.0,5.0,51,0.00,,,0.00,26.000000,,2013-04-03 02:34:00,
2013-04-02 20:44:00,46.0,29.0,-100.00,NW,323,2.0,5.0,51,0.00,,,0.00,26.000000,,2013-04-03 02:44:00,
2013-04-02 20:53:00,46.0,29.0,-100.00,NW,323,2.0,5.0,51,0.00,,,0.00,26.000000,,2013-04-03 02:53:00,
2013-04-02 21:02:00,44.0,29.0,-100.00,NW,308,3.0,8.0,56,0.00,,,0.00,1.000000,,2013-04-03 03:02:00,
2013-04-02 21:23:00,44.0,29.0,-100.00,NW,308,3.0,8.0,56,0.00,,,0.00,1.000000,,2013-04-03 03:23:00,
2013-04-02 21:38:00,44.0,29.0,-100.00,NW,308,3.0,8.0,56,0.00,,,0.00,1.000000,,2013-04-03 03:38:00,
2013-04-02 21:44:00,44.0,29.0,-100.00,NW,308,3.0,8.0,56,0.00,,,0.00,1.000000,,2013-04-03 03:44:00,
2013-04-02 21:54:00,44.0,29.0,-100.00,NW,308,3.0,8.0,56,0.00,,,0.00,1.000000,,2013-04-03 03:54:00,
2013-04-02 22:02:00,44.0,28.0,-100.00,NW,304,3.0,9.0,54,0.00,,,0.00,0.000000,,2013-04-03 04:02:00,
2013-04-02 22:23:00,44.0,28.0,-100.00,NW,304,3.0,9.0,54,0.00,,,0.00,0.000000,,2013-04-03 04:23:00,
2013-04-02 22:33:00,44.0,28.0,-100.00,NW,304,3.0,9.0,54,0.00,,,0.00,0.000000,,2013-04-03 04:33:00,
2013-04-02 22:43:00,44.0,28.0,-100.00,NW,304,3.0,9.0,54,0.00,,,0.00,0.000000,,2013-04-03 04:43:00,
2013-04-02 22:53:00,44.0,28.0,-100.00,NW,304,3.0,9.0,54,0.00,,,0.00,0.000000,,2013-04-03 04:53:00,
2013-04-02 23:02:00,44.0,31.0,-100.00,West,270,2.0,7.0,59,0.00,,,0.00,0.000000,,2013-04-03 05:02:00,
2013-04-02 23:32:00,44.0,31.0,-100.00,West,270,2.0,7.0,59,0.00,,,0.00,0.000000,,2013-04-03 05:32:00,
2013-04-02 23:42:00,44.0,31.0,-100.00,West,270,2.0,7.0,59,0.00,,,0.00,0.000000,,2013-04-03 05:42:00,
2013-04-02 23:52:00,44.0,31.0,-100.00,West,270,2.0,7.0,59,0.00,,,0.00,0.000000,,2013-04-03 05:52:00,